{"data":{"norad_id":58000,"epoch":"2026-09-20T16:31:39.951840Z","epoch_age_seconds":121359,"freshness":"FRESH","line1":"1 58000U 23153K   26263.68865685 -.00000436  00000+0 -63220-5 0  9990","line2":"2 58000  43.0011  45.3982 0001421 274.5451  85.5238 15.27576723164727","mean_motion":15.27576723,"eccentricity":0.0001421,"inclination_deg":43.0011,"raan_deg":45.3982,"arg_perigee_deg":274.5451,"mean_anomaly_deg":85.5238,"bstar":-6.322e-6,"rev_number":16472,"period_min":94.266950937298,"perigee_km":482.08393263548,"apogee_km":484.0338845127,"semimajor_km":6861.1959085741,"source":"CELESTRAK","updated_at":"2026-09-21T09:00:33.754842Z"}}